Regional Weather Roundup
Issued by NWS New Orleans/Baton Rouge, LA

Home | Current Version | Previous Version | Text Only | Print | Product List | Glossary Off
Versions: 1 2 3 4 5 6 7 8 9 10 11 12 13 14 15 16 17 18 19 20 21 22 23 24 25 26 27 28 29 30 31 32 33 34 35 36 37 38 39 40 41 42 43 44 45 46 47 48 49 50

388
ASUS44 KLIX 221501
RWRLIX
NEW ORLEANS REGIONAL WEATHER ROUNDUP
NATIONAL WEATHER SERVICE NEW ORLEANS LA
900 AM CST MON DEC 22 2014

NOTE: "FAIR" INDICATES FEW OR NO CLOUDS BELOW 12,000 FEET WITH NO
      SIGNIFICANT WEATHER AND/OR OBSTRUCTIONS TO VISIBILITY.
      SKY/WX - SKY CONDITION AND SIGNIFICANT WEATHER.
      TMP - AIR TEMPERATURE.     DP    - DEWPOINT TEMPERATURE.
      RH  - RELATIVE HUMIDITY.   PRES  - PRESSURE.
      HI  - HEAT INDEX.          WCI   - WIND CHILL INDEX.

*  THESE STATIONS ARE NOT NWS OR FAA STATIONS AND ARE NOT UNDER
   NWS QUALITY CONTROL.

LAZ038-040-048-061>063-065>067-069-221600-
SOUTHEAST LOUISIANA

CITY           SKY/WX    TMP DP  RH WIND       PRES   REMARKS
N.O. AUDUBON     N/A     62  62  99 MISG        N/A
N.O. INTL ARPT CLOUDY    63  60  90 CALM      29.84S FOG
N.O. LAKEFRONT CLOUDY    61  58  90 E8        29.85S FOG
N.O. DOWNTOWN* PTSUNNY   63  57  82 SE5       29.84F
SLIDELL        LGT RAIN  60  58  92 VRB3      29.84S
BATON ROUGE    FOG       58  57  97 SE7       29.82S VSB 1/2
BOOTHVILLE     CLOUDY    67  66  97 S8        29.86S FOG
BELLE CHASSE   RAIN      62  60  93 E3        29.85S VSB 1/2
BOGALUSA*        N/A     60  58  92 SE3       29.86S FOG
GALLIANO*      NOT AVBL
NEW ROADS*     NOT AVBL
GONZALES*      NOT AVBL
HAMMOND*       NOT AVBL
HOUMA*         PTSUNNY   63  63 100 E3        29.83F FOG
PORT FOURCHON* PTSUNNY   68  66  94 S5        29.87S

$$

MSZ070-080>082-221600-
SOUTHERN MISSISSIPPI

CITY           SKY/WX    TMP DP  RH WIND       PRES   REMARKS
MCCOMB         FOG       57  56  96 SE5       29.83F VSB 1/4
GULFPORT       LGT RAIN  61  60  97 E7        29.85F FOG
BILOXI         PTSUNNY   63  63 100 E7        29.86S
PASCAGOULA     CLOUDY    60  59  96 E6        29.87S

$$

COASTAL OBSERVATIONS
LAKE AND NEARSHORE STATIONS

STATION/POSITION TIME  TEMP    WIND        PRES    WAVE
                       AIR SEA DIR/SP/G            HT/PER
                 (UTC) (F)     (DEG/KT/KT) (MB)    (FT/S)
PASCAGOULA       1400   60      70/  8/ 12 1011.0
WAVELAND YACHT   1400   58     100/  2/  3 1010.0
GRAND ISLE       1400   63 60   50/  2/  3 1011.1
SOUTHWEST PASS   1400   69                 1011.1
NEW CANAL        1400   60 56   CALM  /  2 1010.9
SHELL BEACH      1400   59 57   90/  3/  4 1010.5

OFFSHORE STATIONS

STATION/POSITION TIME  TEMP    WIND        PRES    WAVE
                       AIR SEA DIR/SP/G            HT/PER
                 (UTC) (F)     (DEG/KT/KT) (MB)    (FT/S)
64 S DAUPHIN ISL 1500   73 74  160/  8/ 10 1011.2    2/ 5

$$




USA.gov is the U.S. government's official web portal to all federal, state and local government web resources and services.